Location: Noordwijk
(52.2400°N, 4.4500°E)
Time: 16:39:37
(UTC+00:00)

Oscar 19 - Visible Passes

Search period start: 30 November 2022 00:00
Search period end: 10 December 2022 00:00
Orbit: 772 x 790 km, 98.8° (Epoch: 29 November)

Date Brightness Start Highest point End Pass type
(mag) Time Alt. Az. Time Alt. Az. Time Alt. Az.
30 Nov 12.5 03:38:59 10° NNE 03:40:55 23° NNE 03:40:55 23° NNE visible
30 Nov 12.0 05:18:59 10° N 05:21:27 20° NNW 05:21:27 20° NNW visible
01 Dec 13.0 03:07:05 10° NNE 03:08:20 17° NE 03:08:20 17° NE visible
01 Dec 12.0 04:46:28 10° N 04:48:52 25° NNW 04:48:52 25° NNW visible
01 Dec 13.5 16:12:08 10° WSW 16:14:42 14° W 16:17:16 10° NW visible
02 Dec 13.5 02:35:31 10° NE 02:35:45 11° NE 02:35:45 11° NE visible
02 Dec 12.2 04:14:11 10° N 04:16:17 25° N 04:16:17 25° N visible
02 Dec 12.4 05:55:01 10° NNW 05:56:49 14° NW 05:56:49 14° NW visible
03 Dec 12.6 03:42:03 10° NNE 03:43:42 21° NNE 03:43:42 21° NNE visible
03 Dec 12.2 05:22:06 10° N 05:24:14 19° NNW 05:24:14 19° NNW visible
04 Dec 13.1 03:10:08 10° NNE 03:11:08 15° NNE 03:11:08 15° NNE visible
04 Dec 12.1 04:49:34 10° N 04:51:40 22° NNW 04:51:40 22° NNW visible
04 Dec 13.5 16:15:28 10° WSW 16:17:48 13° W 16:20:09 10° WNW visible
05 Dec 13.6 02:38:31 10° NE 02:38:34 10° NE 02:38:34 10° NE visible
05 Dec 12.3 04:17:15 10° N 04:19:06 22° N 04:19:06 22° N visible
05 Dec 12.4 05:58:10 10° NNW 05:59:37 13° NW 05:59:37 13° NW visible
06 Dec 12.7 03:45:07 10° NNE 03:46:32 19° NNE 03:46:32 19° NNE visible
06 Dec 12.3 05:25:12 10° N 05:27:03 17° NNW 05:27:03 17° NNW visible
07 Dec 13.2 03:13:10 10° NNE 03:13:58 14° NNE 03:13:58 14° NNE visible
07 Dec 12.3 04:52:39 10° N 04:54:30 20° N 04:54:30 20° N visible
07 Dec 13.6 16:18:50 10° WSW 16:20:55 12° W 16:23:01 10° WNW visible
08 Dec 12.4 04:20:20 10° N 04:21:56 20° N 04:21:56 20° N visible
08 Dec 12.5 06:01:20 10° NNW 06:02:28 12° NNW 06:02:28 12° NNW visible
09 Dec 12.8 03:48:10 10° NNE 03:49:23 18° NNE 03:49:23 18° NNE visible
09 Dec 12.4 05:28:19 10° N 05:29:55 16° NNW 05:29:55 16° NNW visible
